TimeEST,TemperatureF,Dew PointF,Humidity,Sea Level PressureIn,VisibilityMPH,Wind Direction,Wind SpeedMPH,Gust SpeedMPH,PrecipitationIn,Events,Conditions,WindDirDegrees,DateUTC
12:54 AM,32.0,24.1,73,29.75,10.0,NNW,9.2,-,0.00,,Overcast,340,2013-02-17 05:54:00
1:54 AM,32.0,21.9,66,29.75,10.0,NNW,10.4,-,N/A,,Overcast,340,2013-02-17 06:54:00
2:54 AM,30.9,21.9,69,29.75,10.0,NNW,9.2,-,N/A,,Clear,330,2013-02-17 07:54:00
3:54 AM,30.9,19.0,61,29.76,10.0,NNW,12.7,-,N/A,,Clear,340,2013-02-17 08:54:00
4:54 AM,30.0,17.1,59,29.79,10.0,NNW,12.7,-,N/A,,Clear,340,2013-02-17 09:54:00
5:54 AM,28.9,16.0,58,29.81,10.0,NNW,9.2,-,N/A,,Clear,330,2013-02-17 10:54:00
6:54 AM,28.0,15.1,58,29.83,10.0,NNW,8.1,-,N/A,,Clear,340,2013-02-17 11:54:00
7:54 AM,28.9,17.1,61,29.85,10.0,NW,8.1,-,N/A,,Clear,320,2013-02-17 12:54:00
8:54 AM,32.0,19.9,61,29.86,10.0,NW,15.0,-,N/A,,Partly Cloudy,320,2013-02-17 13:54:00
9:54 AM,32.0,15.1,50,29.88,10.0,NW,19.6,26.5,N/A,,Partly Cloudy,320,2013-02-17 14:54:00
10:54 AM,32.0,14.0,48,29.90,10.0,NNW,16.1,28.8,N/A,,Partly Cloudy,330,2013-02-17 15:54:00
11:54 AM,32.0,14.0,48,29.90,10.0,NNW,17.3,31.1,N/A,,Overcast,330,2013-02-17 16:54:00
12:54 PM,32.0,14.0,48,29.90,10.0,NW,21.9,33.4,N/A,,Mostly Cloudy,310,2013-02-17 17:54:00
1:54 PM,33.1,12.9,43,29.91,10.0,NW,21.9,32.2,N/A,,Mostly Cloudy,310,2013-02-17 18:54:00
2:54 PM,33.1,14.0,46,29.93,10.0,NW,24.2,32.2,0.00,,Overcast,320,2013-02-17 19:54:00
3:54 PM,33.1,10.9,40,29.95,10.0,NW,19.6,27.6,N/A,,Mostly Cloudy,310,2013-02-17 20:54:00
4:54 PM,30.9,9.0,40,29.97,10.0,NNW,20.7,31.1,N/A,,Overcast,330,2013-02-17 21:54:00
5:54 PM,30.9,7.0,37,30.00,10.0,NW,17.3,28.8,N/A,,Mostly Cloudy,310,2013-02-17 22:54:00
6:54 PM,30.2,6.8,37,30.06,10.0,NW,19.6,29.9,N/A,,Scattered Clouds,310,2013-02-17 23:54:00
7:54 PM,30.0,5.0,35,30.07,10.0,NW,20.7,34.5,N/A,,Scattered Clouds,310,2013-02-18 00:54:00
8:54 PM,28.9,5.0,36,30.11,10.0,NW,23.0,32.2,N/A,,Clear,320,2013-02-18 01:54:00
9:54 PM,28.0,6.1,39,30.12,10.0,NW,20.7,27.6,N/A,,Clear,320,2013-02-18 02:54:00
10:54 PM,28.0,7.0,41,30.14,10.0,NW,15.0,34.5,N/A,,Clear,320,2013-02-18 03:54:00
11:54 PM,27.0,7.0,43,30.17,10.0,NW,17.3,28.8,N/A,,Clear,320,2013-02-18 04:54:00